Weather History for Charleston, WV

Change the Weather History Date:

Monday, March 25, 2013

  Actual Average Record
Temperature  
Mean Temperature 37 °F 49 °F  
Max Temperature 41 °F 60 °F 90 °F (1929)
Min Temperature 32 °F 38 °F 17 °F (1960)
Degree Days  
Heating Degree Days 28 16  
Month to date heating degree days 642 508  
Since 1 July heating degree days 4025 3962  
Cooling Degree Days 0 0  
Month to date cooling degree days 0 0  
Year to date cooling degree days 0 0  
Moisture  
Dew Point 30 °F    
Average Humidity 81    
Maximum Humidity 92    
Minimum Humidity 70    
Precipitation  
Precipitation 0.28 in 0.12 in 1.00 in (1921)
Month to date precipitation 2.92 3.20  
Year to date precipitation 8.95 9.39  
Snow  
Snow T in - - ()
Month to date snowfall 2.2  
Since 1 September snowfall 25.0  
Snow Depth 0.00 in    
Sea Level Pressure  
Sea Level Pressure 29.59 in    
Wind  
Wind Speed 13 mph (WSW)    
Max Wind Speed 23 mph    
Max Gust Speed 32 mph    
Visibility 5 miles    
Events Rain , Snow    
T = Trace of Precipitation, MM = Missing Value Source: NWS Daily Summary

Daily Weather History Graph

Daily Weather History Graph

Search for Another Location

Airport:

Trip Planner

Search our weather history database for the weather conditions in past years. The results will help you decide how hot, cold, wet, or windy it might be!

Date:

Astronomy

Mar. 25, 2013 Rise Set
Actual Time 7:21 AM EDT 7:43 PM EDT
Civil Twilight 6:55 AM EDT 8:09 PM EDT
Nautical Twilight 6:24 AM EDT 8:40 PM EDT
Astronomical Twilight 5:52 AM EDT 9:12 PM EDT
Moon 6:14 PM EDT (3/25) 6:03 AM EDT (3/25)
Length of Visible Light 13h 14m
Length of Day
12h 21m
Waxing Gibbous, 96% of the Moon is Illuminated
Mar 25
Waxing Gibbous
Mar 27
Full
Apr 3
Last Quarter
Apr 10
New
Apr 18
First Quarter

Hourly Weather History & Observations

Time (EDT) Temp. Windchill Dew Point Humidity Pressure Visibility Wind Dir Wind Speed Gust Speed Precip Events Conditions
12:54 AM 41.0 °F 33.9 °F 35.1 °F 79% 29.44 in 10.0 mi SSE 12.7 mph 23.0 mph 0.00 in   Overcast
1:06 AM 41.0 °F 33.9 °F 35.6 °F 81% 29.43 in 10.0 mi SSE 12.7 mph - N/A   Overcast
1:54 AM 39.9 °F 33.9 °F 36.0 °F 86% 29.44 in 4.0 mi SSE 9.2 mph - 0.05 in Rain Rain
2:33 AM 39.2 °F - 35.6 °F 87% 29.44 in 10.0 mi Calm Calm - 0.06 in Rain Light Rain
2:54 AM 39.0 °F 35.7 °F 37.0 °F 93% 29.45 in 10.0 mi Variable 4.6 mph - 0.06 in Rain Light Rain
3:54 AM 41.0 °F 33.5 °F 35.1 °F 79% 29.46 in 10.0 mi SW 13.8 mph - 0.03 in Rain Light Rain
4:54 AM 37.9 °F 27.6 °F 33.1 °F 83% 29.48 in 9.0 mi WSW 20.7 mph 31.1 mph 0.01 in Rain Light Rain
5:07 AM 37.4 °F 27.8 °F 32.0 °F 81% 29.47 in 6.0 mi WSW 17.3 mph 28.8 mph 0.01 in Rain Light Rain
5:35 AM 35.6 °F 25.9 °F 30.2 °F 81% 29.48 in 10.0 mi WSW 16.1 mph 28.8 mph 0.03 in Rain Light Rain
5:50 AM 35.6 °F 25.5 °F 30.2 °F 81% 29.48 in 10.0 mi WSW 17.3 mph 26.5 mph 0.03 in Rain Light Rain
5:54 AM 36.0 °F 26.0 °F 28.9 °F 76% 29.50 in 10.0 mi WSW 17.3 mph 27.6 mph 0.03 in   Overcast
6:54 AM 36.0 °F 25.0 °F 26.1 °F 67% 29.50 in 10.0 mi West 20.7 mph 27.6 mph 0.00 in Rain Light Rain
7:54 AM 34.0 °F 24.6 °F 27.0 °F 75% 29.52 in 10.0 mi SW 13.8 mph 24.2 mph 0.00 in Snow Light Snow
8:26 AM 33.8 °F 25.8 °F 28.4 °F 81% 29.51 in 7.0 mi SW 10.4 mph - 0.00 in Snow Light Snow
8:40 AM 33.8 °F 26.4 °F 28.4 °F 81% 29.51 in 4.0 mi SW 9.2 mph 18.4 mph 0.00 in Snow Light Snow
8:54 AM 34.0 °F 25.0 °F 28.0 °F 79% 29.53 in 2.0 mi SW 12.7 mph - 0.00 in Snow Light Snow
9:39 AM 33.8 °F 24.3 °F 28.4 °F 81% 29.52 in 2.0 mi SSW 13.8 mph 18.4 mph 0.01 in Snow Light Snow
9:54 AM 33.1 °F 23.4 °F 28.9 °F 85% 29.54 in 1.5 mi SSW 13.8 mph - 0.01 in Snow Light Snow
10:43 AM 33.8 °F 24.8 °F 28.4 °F 81% 29.54 in 5.0 mi SW 12.7 mph 20.7 mph 0.00 in Snow Light Snow
10:54 AM 34.0 °F 24.6 °F 28.0 °F 79% 29.56 in 6.0 mi WSW 13.8 mph 24.2 mph 0.00 in Snow Light Snow
11:28 AM 33.8 °F 23.9 °F 28.4 °F 81% 29.55 in 2.0 mi SW 15.0 mph - 0.00 in Snow Light Snow
11:54 AM 33.1 °F 24.4 °F 28.9 °F 85% 29.57 in 1.0 mi SW 11.5 mph - 0.01 in Snow Light Snow
12:54 PM 34.0 °F 23.8 °F 28.9 °F 82% 29.60 in 2.0 mi West 16.1 mph 21.9 mph 0.02 in Snow Light Snow
1:43 PM 33.8 °F 24.3 °F 28.4 °F 81% 29.59 in 1.0 mi WSW 13.8 mph 20.7 mph 0.00 in Snow Light Snow
1:54 PM 33.1 °F 23.4 °F 28.9 °F 85% 29.61 in 1.0 mi WSW 13.8 mph 24.2 mph 0.00 in Snow Light Snow
2:24 PM 35.6 °F 28.6 °F 28.4 °F 75% 29.60 in 2.5 mi West 9.2 mph 19.6 mph 0.01 in Snow Light Snow
2:54 PM 33.1 °F 22.6 °F 28.0 °F 82% 29.63 in 2.5 mi WSW 16.1 mph 25.3 mph 0.01 in Snow Light Snow
3:37 PM 33.8 °F 27.0 °F 28.4 °F 81% 29.63 in 1.5 mi West 8.1 mph - 0.00 in Snow Light Snow
3:54 PM 33.1 °F 24.9 °F 28.9 °F 85% 29.65 in 1.5 mi WSW 10.4 mph 21.9 mph 0.01 in Snow Light Snow
4:54 PM 34.0 °F 26.0 °F 28.0 °F 79% 29.67 in 1.5 mi West 10.4 mph 19.6 mph 0.00 in Snow Light Snow
5:54 PM 34.0 °F 26.6 °F 28.9 °F 82% 29.70 in 1.5 mi WSW 9.2 mph - 0.01 in Snow Light Snow
6:54 PM 34.0 °F 25.5 °F 28.9 °F 82% 29.73 in 4.0 mi WSW 11.5 mph - 0.00 in Snow Light Snow
7:54 PM 33.1 °F 24.4 °F 28.9 °F 85% 29.77 in 3.0 mi WSW 11.5 mph 20.7 mph 0.01 in Snow Light Snow
8:54 PM 34.0 °F 25.5 °F 28.9 °F 82% 29.80 in 4.0 mi WSW 11.5 mph 20.7 mph 0.00 in Snow Light Snow
9:54 PM 34.0 °F 25.5 °F 28.9 °F 82% 29.82 in 5.0 mi WSW 11.5 mph - 0.01 in Snow Light Snow
10:54 PM 33.1 °F 24.9 °F 28.9 °F 85% 29.85 in 4.0 mi WSW 10.4 mph - 0.00 in Snow Light Snow
11:54 PM 33.1 °F 26.1 °F 28.9 °F 85% 29.86 in 4.0 mi West 8.1 mph - 0.01 in Snow Light Snow